Weather History for Bettles, AK

Change the Weather History Date:

Monday, January 21, 2013

  Actual Average Record
Temperature  
Mean Temperature -2 °F -  
Max Temperature 12 °F -2 °F 42 °F (1961)
Min Temperature -16 °F -16 °F -65 °F (1993)
Degree Days  
Heating Degree Days 67    
Moisture  
Dew Point -8 °F    
Average Humidity 66    
Maximum Humidity 87    
Minimum Humidity 33    
Precipitation  
Precipitation 0.00 in - - ()
Snow  
Snow 0.00 in - - ()
Snow Depth 19.00 in    
Sea Level Pressure  
Sea Level Pressure 30.32 in    
Wind  
Wind Speed 3 mph (ENE)    
Max Wind Speed 15 mph    
Max Gust Speed 32 mph    
Visibility 10 miles    
Events      
Averages and records for this station are not official NWS values.
T = Trace of Precipitation, MM = Missing Value Source: NWS Daily Summary

Daily Weather History Graph

Daily Weather History Graph

Search for Another Location

Airport:

Trip Planner

Search our weather history database for the weather conditions in past years. The results will help you decide how hot, cold, wet, or windy it might be!

Date:

Astronomy

Jan. 21, 2013 Rise Set
Actual Time 10:50 AM AKST 3:45 PM AKST
Civil Twilight 9:33 AM AKST 5:02 PM AKST
Nautical Twilight 8:22 AM AKST 6:13 PM AKST
Astronomical Twilight 7:18 AM AKST 7:17 PM AKST
Moon 11:13 AM AKST (1/21) 6:43 AM AKST (1/21)
Length of Visible Light 7h 29m
Length of Day
4h 54m
Waxing Gibbous, 76% of the Moon is Illuminated
Jan 21
Waxing Gibbous
Jan 26
Full
Feb 3
Last Quarter
Feb 9
New
Feb 17
First Quarter

Hourly Weather History & Observations

Time (AKST) Temp. Windchill Dew Point Humidity Pressure Visibility Wind Dir Wind Speed Gust Speed Precip Events Conditions
12:53 AM 3.0 °F - -0.0 °F 87% 30.28 in 10.0 mi Calm Calm - N/A   Mostly Cloudy
1:53 AM -0.9 °F - -4.0 °F 87% 30.29 in 10.0 mi Calm Calm - N/A   Scattered Clouds
3:53 AM -5.1 °F - -9.0 °F 83% 30.30 in 10.0 mi Calm Calm - N/A   Partly Cloudy
4:53 AM -9.0 °F -20.4 °F -13.0 °F 83% 30.32 in 10.0 mi SSE 4.6 mph - N/A   Partly Cloudy
5:53 AM -9.0 °F - -13.0 °F 83% 30.32 in 10.0 mi Calm Calm - N/A   Partly Cloudy
6:53 AM -11.9 °F -23.8 °F -15.0 °F 86% 30.32 in 10.0 mi ESE 4.6 mph - N/A   Clear
7:53 AM -14.1 °F - -18.0 °F 82% 30.33 in 10.0 mi Calm Calm - N/A   Clear
8:53 AM -13.0 °F - -17.0 °F 82% 30.35 in 10.0 mi Calm Calm - N/A   Partly Cloudy
9:53 AM -15.0 °F - -20.0 °F 78% 30.35 in 10.0 mi Calm Calm - N/A   Partly Cloudy
10:53 AM -16.1 °F - -20.0 °F 82% 30.34 in 10.0 mi Calm Calm - N/A   Clear
11:53 AM -11.0 °F - -15.0 °F 83% 30.35 in 10.0 mi Calm Calm - N/A   Partly Cloudy
12:53 PM 3.9 °F -6.9 °F -2.9 °F 73% 30.34 in 10.0 mi NNE 5.8 mph - N/A   Partly Cloudy
1:53 PM 12.0 °F 2.7 °F 1.0 °F 61% 30.33 in 10.0 mi Variable 5.8 mph - N/A   Partly Cloudy
2:53 PM 12.0 °F 2.7 °F -0.9 °F 56% 30.33 in 10.0 mi Variable 5.8 mph - N/A   Partly Cloudy
3:53 PM 12.0 °F 1.5 °F -0.9 °F 56% 30.33 in 10.0 mi Variable 6.9 mph 19.6 mph N/A   Partly Cloudy
4:53 PM 10.9 °F 0.2 °F -0.9 °F 59% 30.32 in 10.0 mi ENE 6.9 mph 18.4 mph N/A   Partly Cloudy
5:53 PM 10.9 °F -0.8 °F -2.0 °F 56% 30.31 in 10.0 mi ENE 8.1 mph - N/A   Partly Cloudy
6:53 PM 12.0 °F -0.4 °F -2.0 °F 53% 30.30 in 10.0 mi ENE 9.2 mph 19.6 mph N/A   Clear
7:53 PM 12.0 °F -1.3 °F -2.9 °F 51% 30.30 in 10.0 mi ENE 10.4 mph 32.2 mph N/A   Clear
8:53 PM 12.0 °F -1.3 °F -4.0 °F 49% 30.30 in 10.0 mi ENE 10.4 mph 21.9 mph N/A   Clear
9:53 PM 12.0 °F -1.3 °F -6.0 °F 44% 30.30 in 10.0 mi ENE 10.4 mph 25.3 mph N/A   Clear
10:53 PM 12.0 °F -4.0 °F -7.1 °F 42% 30.29 in 10.0 mi ENE 15.0 mph 27.6 mph N/A   Clear
11:53 PM 12.0 °F 1.5 °F -7.1 °F 42% 30.28 in 10.0 mi Variable 6.9 mph 21.9 mph N/A   Clear